[[{"header":{"parameterUnit":"m.s-1","parameterCategory":1,"la1":30.2992,"la2":30.254,"lo1":-89.0895,"lo2":-89.0443,"dy":0.0025,"dx":0.0025,"nx":19,"ny":19,"refTime":"2026-04-16T03:00:00:Z","depth":0,"parameterNumber":2,"parameterNumberName":"U-component_of_WINDS"},"data":[0,0,0,0.6178,0.6178,0.6193,0.6193,0.6206,0.6206,0,0,0,0,0,0,0,0,0,0,0,0.6172,0.6172,0.6178,0.6178,0.6193,0.6193,0.6206,0.6206,0,0,0,0,0,0,0,0,0,0,0,0.6172,0.6172,0.6172,0.6178,0.6193,0.6193,0.6206,0.6197,0,0,0,0,0,0,0,0,0,0,0.6183,0.6176,0.6172,0.6172,0.6178,0.6193,0.6193,0.6196,0.6197,0.6198,0,0.6199,0,0.6203,0.6207,0.6207,0,0,0,0.6179,0.6176,0.6181,0.6172,0.6178,0.6193,0.6187,0.6197,0.6198,0.6199,0.6199,0.62,0.6203,0.6207,0.6207,0.6207,0.6207,0,0,0.6179,0.6173,0.618,0.6182,0.6181,0.6186,0.6187,0.6198,0.6197,0.6199,0.62,0.6203,0.6207,0.6207,0.6207,0.6207,0,0,0,0.6175,0.6173,0.6178,0.6181,0.6184,0.6186,0.6188,0.6196,0.6199,0.62,0.6203,0.6207,0.6207,0.6207,0.6207,0.6199,0,0,0,0.6175,0.6171,0.6178,0.6175,0.6184,0.6191,0.6186,0.6198,0.6199,0.6203,0.6207,0.6207,0.6207,0.6207,0.6199,0.6196,0,0,0,0.6171,0.617,0.6172,0.6174,0.618,0.6191,0.6194,0.6198,0.6201,0.6207,0.6207,0.6207,0.6207,0.62,0.6196,0.6193,0,0,0,0.6166,0.6165,0.6172,0.6172,0.618,0.6186,0.6194,0.6198,0.6202,0.6207,0.6207,0.6207,0.62,0.6197,0.6193,0.6189,0.6187,0,0,0.6162,0.6165,0.6165,0.6171,0.6175,0.6184,0.6186,0.6194,0.6199,0.6204,0.6204,0.6199,0.6196,0.6193,0.6179,0.6177,0,0,0,0.6162,0.6162,0.6164,0.6168,0.6174,0.6179,0.6188,0.619,0.6194,0.6201,0.6198,0.6196,0.6194,0.6193,0.6191,0.6189,0.6206,0.6206,0.6206,0.6149,0.6156,0.6156,0.6164,0.6167,0.6175,0.6177,0.6182,0.6188,0.6187,0.6188,0.6179,0.6177,0.6176,0.6174,0.6187,0.6187,0.6187,0.6187,0.6144,0.6144,0.6151,0.6154,0.6159,0.6161,0.6168,0.6172,0.6174,0.6179,0.6178,0.6183,0.6174,0.6172,0.6187,0.6187,0.6187,0.6187,0.6187,0.6136,0.6137,0.614,0.6145,0.6147,0.6154,0.6155,0.616,0.6165,0.6164,0.6165,0.6165,0.6165,0.6164,0.6164,0.6164,0.6164,0.6164,0.6164,0.6126,0.613,0.6131,0.6136,0.6138,0.6141,0.6147,0.6149,0.6152,0.6155,0.6155,0.616,0.6172,0.6174,0.6164,0.6164,0.6164,0.6164,0.6164,0.6118,0.612,0.6121,0.6122,0.6128,0.6128,0.6135,0.6137,0.6139,0.6139,0.6143,0.6151,0.6154,0.6155,0.6157,0.6143,0.6143,0.6143,0.6143,0.611,0.6112,0.6113,0.6115,0.6117,0.6123,0.6121,0.6125,0.6129,0.613,0.6133,0.6136,0.6137,0.614,0.6141,0.6143,0.6125,0.6125,0.6125,0.6105,0.6107,0.6105,0.611,0.6113,0.6116,0.6114,0.6114,0.612,0.6124,0.6131,0.6132,0.6137,0.6139,0.6143,0.6145,0.6149,0,0]},{"header":{"parameterUnit":"m.s-1","parameterCategory":1,"la1":30.2992,"la2":30.254,"lo1":-89.0895,"lo2":-89.0443,"dy":0.0025,"dx":0.0025,"nx":19,"ny":19,"refTime":"2026-04-16T03:00:00:Z","depth":0,"parameterNumber":3,"parameterNumberName":"V-component_of_WINDS"},"data":[0,0,0,1.7539,1.754,1.7614,1.7614,1.771,1.7711,0,0,0,0,0,0,0,0,0,0,0,1.752,1.7521,1.7538,1.754,1.7613,1.7614,1.771,1.7711,0,0,0,0,0,0,0,0,0,0,0,1.752,1.7521,1.7522,1.7541,1.7613,1.7614,1.771,1.7653,0,0,0,0,0,0,0,0,0,0,1.7581,1.7569,1.7521,1.7522,1.7541,1.7613,1.7614,1.765,1.7657,1.7679,0,1.7701,0,1.7708,1.7718,1.7718,0,0,0,1.7537,1.7563,1.758,1.7522,1.7542,1.7613,1.758,1.7654,1.7661,1.7687,1.7702,1.7706,1.7709,1.7719,1.7719,1.7858,1.7859,0,0,1.7533,1.7535,1.7575,1.7585,1.7575,1.7577,1.7582,1.7658,1.7674,1.7702,1.7708,1.7711,1.7719,1.772,1.7857,1.7858,0,0,0,1.7524,1.7533,1.7547,1.7581,1.7594,1.758,1.7585,1.7671,1.7675,1.7709,1.7712,1.772,1.7721,1.7856,1.7857,1.7898,0,0,0,1.7521,1.7527,1.7545,1.7547,1.7593,1.7634,1.7596,1.767,1.7679,1.7711,1.772,1.7722,1.7855,1.7857,1.7895,1.7916,0,0,0,1.7514,1.7526,1.7538,1.7547,1.7579,1.7632,1.7641,1.7672,1.7681,1.7718,1.7722,1.7855,1.7857,1.7892,1.7912,1.7952,0,0,0,1.7507,1.7573,1.7539,1.7613,1.7578,1.7657,1.7641,1.7699,1.7737,1.772,1.7856,1.7857,1.7891,1.7909,1.7949,1.7986,1.8002,0,0,1.7591,1.7583,1.7627,1.7598,1.7683,1.7646,1.7736,1.7769,1.777,1.7828,1.7831,1.7896,1.7912,1.7952,1.809,1.8103,0,0,0,1.7654,1.7685,1.7707,1.7743,1.7769,1.7793,1.7811,1.7822,1.7871,1.7801,1.7921,1.7931,1.7954,1.7971,1.7982,1.8001,1.7866,1.7865,1.7865,1.7776,1.7774,1.7845,1.7852,1.7886,1.7903,1.793,1.7948,1.7937,1.7965,1.7982,1.8067,1.8087,1.8095,1.8115,1.8002,1.8002,1.8002,1.8002,1.7898,1.7941,1.7923,1.7986,1.7982,1.8034,1.8052,1.8042,1.8088,1.8054,1.8075,1.8037,1.8109,1.8126,1.8005,1.8005,1.8004,1.8004,1.8004,1.7977,1.7997,1.801,1.806,1.8098,1.8101,1.8146,1.8142,1.8138,1.8158,1.8175,1.8174,1.8172,1.8167,1.8167,1.8167,1.8167,1.8168,1.8168,1.8054,1.8067,1.8106,1.8138,1.8159,1.8186,1.8201,1.8222,1.8242,1.8235,1.8235,1.822,1.8117,1.809,1.8172,1.8172,1.8171,1.8171,1.817,1.8178,1.8149,1.8209,1.823,1.8265,1.8302,1.8295,1.8336,1.8352,1.8374,1.8353,1.8278,1.827,1.8261,1.8239,1.8355,1.8355,1.8355,1.8355,1.8244,1.8239,1.8299,1.8332,1.8364,1.8363,1.8429,1.8441,1.8449,1.8458,1.844,1.8411,1.8403,1.8399,1.8387,1.8367,1.8512,1.8512,1.8512,1.8319,1.8317,1.8375,1.8382,1.8409,1.8431,1.8492,1.853,1.8532,1.8519,1.8464,1.8458,1.841,1.8395,1.8381,1.8363,1.8325,0,0]}]]